| time (UTC) | temp C | wind direction | speed KPH | gust KPH | rain 1hr cm | rain 24hr cm | rain mn cm | humidity % | barometer mb |
| 20260506200042 | 15 | 312 | 6.4 | 19.3 | 0.00 | 0.00 | 0.00 | 84 | 1011.5 |
| 20260506194541 | 16 | 292 | 6.4 | 20.9 | 0.00 | 0.00 | 0.00 | 83 | 1011.3 |
| 20260506193040 | 16 | 320 | 6.4 | 19.3 | 0.00 | 0.00 | 0.00 | 83 | 1011.4 |
| 20260506191541 | 17 | 347 | 6.4 | 17.7 | 0.00 | 0.00 | 0.00 | 82 | 1011.5 |
| 20260506190039 | 17 | 246 | 4.8 | 14.5 | 0.00 | 0.00 | 0.00 | 83 | 1011.3 |
| 20260506184548 | 18 | 302 | 3.2 | 17.7 | 0.00 | 0.00 | 0.00 | 83 | 1011.1 |
| 20260506183051 | 18 | 301 | 4.8 | 22.5 | 0.00 | 0.00 | 0.00 | 81 | 1011.1 |
| 20260506181602 | 20 | 271 | 6.4 | 17.7 | 0.00 | 0.00 | 0.00 | 79 | 1010.9 |
| 20260506180036 | 20 | 308 | 1.6 | 14.5 | 0.00 | 0.00 | 0.00 | 80 | 1010.8 |
| 20260506174534 | 19 | 342 | 4.8 | 16.1 | 0.00 | 0.00 | 0.00 | 81 | 1010.6 |
| 20260506173052 | 19 | 98 | 1.6 | 8.0 | 0.00 | 0.00 | 0.00 | 83 | 1010.4 |
| 20260506171533 | 18 | 349 | 3.2 | 12.9 | 0.00 | 0.00 | 0.00 | 82 | 1010.3 |
| 20260506170035 | 18 | 12 | 4.8 | 16.1 | 0.00 | 0.00 | 0.00 | 84 | 1010.4 |
| 20260506164536 | 17 | 85 | 4.8 | 14.5 | 0.00 | 0.00 | 0.00 | 87 | 1010.2 |
| 20260506163030 | 16 | 339 | 3.2 | 12.9 | 0.00 | 0.00 | 0.00 | 92 | 1010.9 |
| 20260506161529 | 15 | 21 | 4.8 | 14.5 | 0.00 | 0.00 | 0.00 | 92 | 1010.5 |
| 20260506160029 | 15 | 315 | 3.2 | 17.7 | 0.00 | 0.00 | 0.00 | 92 | 1011.7 |
| 20260506154526 | 15 | 34 | 8.0 | 20.9 | 0.00 | 0.00 | 0.00 | 91 | 1012.1 |
| 20260506153023 | 16 | 287 | 4.8 | 27.4 | 0.00 | 0.00 | 0.00 | 92 | 1012.0 |
| 20260506151518 | 16 | 305 | 4.8 | 24.1 | 0.00 | 0.00 | 0.00 | 92 | 1012.0 |
| 20260506150015 | 17 | 312 | 3.2 | 17.7 | 0.00 | 0.00 | 0.00 | 92 | 1010.9 |
| 20260506144516 | 17 | 306 | 3.2 | 22.5 | 0.00 | 0.00 | 0.00 | 91 | 1009.9 |
| 20260506143009 | 18 | 329 | 6.4 | 20.9 | 0.00 | 0.00 | 0.00 | 90 | 1009.9 |
| 20260506141502 | 18 | 322 | 3.2 | 16.1 | 0.00 | 0.00 | 0.00 | 90 | 1009.3 |
| 20260506140106 | 19 | 55 | 1.6 | 17.7 | 0.00 | 0.00 | 0.00 | 89 | 1008.8 |
| 20260506134555 | 21 | 292 | 3.2 | 17.7 | 0.00 | 0.00 | 0.00 | 89 | 1008.9 |
| 20260506133052 | 22 | 69 | 1.6 | 4.8 | 0.00 | 0.00 | 0.00 | 94 | 1008.3 |
| 20260506131555 | 22 | 46 | 0.0 | 3.2 | 0.00 | 0.00 | 0.00 | 94 | 1008.2 |
| 20260506130048 | 22 | 15 | 0.0 | 4.8 | 0.00 | 0.00 | 0.00 | 94 | 1007.8 |
| 20260506124550 | 22 | 291 | 0.0 | 3.2 | 0.00 | 0.00 | 0.00 | 93 | 1007.8 |
| 20260506123047 | 22 | 200 | 0.0 | 0.0 | 0.00 | 0.00 | 0.00 | 93 | 1007.6 |
| 20260506121543 | 22 | 152 | 0.0 | 0.0 | 0.00 | 0.00 | 0.00 | 92 | 1007.4 |
| 20260506120043 | 22 | 152 | 0.0 | 0.0 | 0.00 | 0.00 | 0.00 | 92 | 1007.3 |
| 20260506114540 | 22 | 152 | 0.0 | 0.0 | 0.00 | 0.00 | 0.00 | 92 | 1007.2 |
| 20260506113042 | 23 | 152 | 0.0 | 0.0 | 0.00 | 0.00 | 0.00 | 92 | 1007.2 |
| 20260506111538 | 23 | 152 | 0.0 | 0.0 | 0.00 | 0.00 | 0.00 | 92 | 1007.3 |
| 20260506110037 | 23 | 199 | 0.0 | 4.8 | 0.00 | 0.00 | 0.00 | 92 | 1007.3 |
| 20260506104536 | 23 | 150 | 0.0 | 4.8 | 0.00 | 0.00 | 0.00 | 91 | 1007.3 |
| 20260506103034 | 23 | 148 | 1.6 | 4.8 | 0.00 | 0.00 | 0.00 | 91 | 1007.2 |
| 20260506101532 | 23 | 175 | 0.0 | 8.0 | 0.00 | 0.00 | 0.00 | 91 | 1007.0 |
| 20260506100034 | 23 | 146 | 1.6 | 8.0 | 0.00 | 0.00 | 0.00 | 91 | 1006.8 |
| 20260506094529 | 23 | 166 | 3.2 | 6.4 | 0.00 | 0.00 | 0.00 | 90 | 1006.7 |
| 20260506093027 | 23 | 127 | 3.2 | 8.0 | 0.00 | 0.00 | 0.00 | 90 | 1006.5 |
| 20260506091526 | 23 | 119 | 3.2 | 8.0 | 0.00 | 0.00 | 0.00 | 89 | 1006.4 |
| 20260506090029 | 23 | 161 | 3.2 | 9.7 | 0.00 | 0.00 | 0.00 | 89 | 1006.4 |
| 20260506084525 | 23 | 136 | 1.6 | 8.0 | 0.00 | 0.00 | 0.00 | 89 | 1006.2 |
| 20260506083024 | 23 | 166 | 0.0 | 12.9 | 0.00 | 0.00 | 0.00 | 89 | 1006.3 |
| 20260506081523 | 23 | 159 | 4.8 | 16.1 | 0.00 | 0.00 | 0.00 | 89 | 1006.3 |
| 20260506073020 | 23 | 143 | 4.8 | 17.7 | 0.00 | 0.00 | 0.00 | 89 | 1006.3 |
| 20260506071519 | 23 | 177 | 6.4 | 17.7 | 0.00 | 0.00 | 0.00 | 89 | 1006.4 |
| 20260506061513 | 23 | 188 | 8.0 | 14.5 | 0.00 | 0.00 | 0.00 | 89 | 1006.2 |
| 20260506044500 | 23 | 165 | 3.2 | 16.1 | 0.00 | 0.00 | 0.00 | 89 | 1006.3 |
| 20260506043101 | 24 | 135 | 4.8 | 11.3 | 0.00 | 0.00 | 0.00 | 88 | 1006.4 |
| 20260506041605 | 24 | 121 | 6.4 | 12.9 | 0.00 | 0.00 | 0.00 | 88 | 1006.3 |
| 20260506040058 | 24 | 173 | 1.6 | 12.9 | 0.00 | 0.00 | 0.00 | 87 | 1006.1 |
| 20260506034614 | 24 | 126 | 1.6 | 6.4 | 0.00 | 0.00 | 0.00 | 86 | 1006.0 |
| 20260506033057 | 25 | 106 | 3.2 | 8.0 | 0.00 | 0.00 | 0.00 | 85 | 1005.8 |
| 20260506031606 | 25 | 145 | 3.2 | 9.7 | 0.00 | 0.00 | 0.00 | 84 | 1005.7 |
| 20260506030056 | 25 | 144 | 0.0 | 8.0 | 0.00 | 0.00 | 0.00 | 83 | 1005.4 |
| 20260506024613 | 25 | 153 | 0.0 | 8.0 | 0.00 | 0.00 | 0.00 | 83 | 1005.2 |
| 20260506023055 | 25 | 123 | 0.0 | 6.4 | 0.00 | 0.00 | 0.00 | 82 | 1005.0 |
| 20260506021554 | 25 | 166 | 0.0 | 6.4 | 0.00 | 0.00 | 0.00 | 81 | 1004.6 |
| 20260506020053 | 26 | 133 | 0.0 | 6.4 | 0.00 | 0.00 | 0.00 | 80 | 1004.5 |
| 20260506014553 | 26 | 128 | 0.0 | 6.4 | 0.00 | 0.00 | 0.00 | 79 | 1004.4 |
| 20260506013104 | 26 | 159 | 0.0 | 9.7 | 0.00 | 0.00 | 0.00 | 77 | 1004.3 |
| 20260506011604 | 26 | 139 | 0.0 | 11.3 | 0.00 | 0.00 | 0.00 | 75 | 1004.1 |
| 20260506010055 | 27 | 152 | 1.6 | 11.3 | 0.00 | 0.00 | 0.00 | 74 | 1004.0 |
| 20260506004549 | 27 | 136 | 3.2 | 8.0 | 0.00 | 0.00 | 0.00 | 73 | 1004.0 |
| 20260506003049 | 27 | 143 | 4.8 | 14.5 | 0.00 | 0.00 | 0.00 | 73 | 1004.1 |
| 20260506001548 | 27 | 136 | 1.6 | 8.0 | 0.00 | 0.00 | 0.00 | 72 | 1004.1 |
| 20260506000050 | 28 | 136 | 1.6 | 11.3 | 0.00 | 0.00 | 0.00 | 71 | 1004.1 |
| 20260505234547 | 28 | 177 | 3.2 | 9.7 | 0.00 | 0.00 | 0.00 | 70 | 1004.1 |
| 20260505233045 | 28 | 122 | 8.0 | 16.1 | 0.00 | 0.00 | 0.00 | 69 | 1004.0 |
| 20260505231544 | 28 | 120 | 6.4 | 14.5 | 0.00 | 0.00 | 0.00 | 69 | 1003.7 |
| 20260505230055 | 28 | 183 | 11.3 | 22.5 | 0.00 | 0.00 | 0.00 | 68 | 1003.7 |
| 20260505224546 | 28 | 175 | 9.7 | 17.7 | 0.00 | 0.00 | 0.00 | 68 | 1003.5 |
| 20260505223054 | 28 | 142 | 9.7 | 19.3 | 0.00 | 0.00 | 0.00 | 68 | 1003.7 |
| 20260505221541 | 28 | 123 | 9.7 | 19.3 | 0.00 | 0.00 | 0.00 | 68 | 1003.5 |
| 20260505220042 | 29 | 219 | 9.7 | 20.9 | 0.00 | 0.00 | 0.00 | 66 | 1003.6 |
| 20260505214537 | 29 | 202 | 9.7 | 16.1 | 0.00 | 0.00 | 0.00 | 67 | 1003.7 |
| 20260505213050 | 29 | 123 | 11.3 | 19.3 | 0.00 | 0.00 | 0.00 | 66 | 1003.8 |
| 20260505211533 | 29 | 173 | 8.0 | 16.1 | 0.00 | 0.00 | 0.00 | 67 | 1004.0 |
| 20260505210032 | 29 | 142 | 6.4 | 19.3 | 0.00 | 0.00 | 0.00 | 67 | 1004.4 |
| 20260505204530 | 30 | 165 | 11.3 | 19.3 | 0.00 | 0.00 | 0.00 | 66 | 1004.5 |
| 20260505203041 | 30 | 143 | 8.0 | 12.9 | 0.00 | 0.00 | 0.00 | 66 | 1004.5 |
| 20260505201525 | 29 | 263 | 8.0 | 24.1 | 0.00 | 0.00 | 0.00 | 64 | 1004.9 |